Location: Lafig�re
(44.4503°N, 4.0357°E)
Time: 14:57:30
(UTC+00:00)

Transit 2A Rocket - Pass Details

Date: 28 January 2021
Orbit: 594 x 908 km, 66.7° (Epoch: 06 March)

Event Time Altitude Azimuth Distance (km) Brightness Sun altitude
Rises 18:28:55 0° 335° (NNW) 2,928 8.2 -18.1°
Reaches altitude 10° 18:31:34 10° 349° (N) 1,982 7.2 -18.6°
Enters shadow 18:34:18 23° 25° (NNE) 1,286 5.9 -19.1°
Maximum altitude 18:35:15 25° 45° (NE) 1,217 - -19.2°
Drops below altitude 10° 18:38:51 10° 103° (ESE) 1,927 - -19.9°
Sets 18:41:23 0° 116° (ESE) 2,828 - -20.3°
